Location: Couri�re
(46.0500°N, 1.5167°E)
Time: 22:35:16
(UTC+00:00)

Daily predictions for brighter satellites

Satellite Brightness Start Highest point End
(mag) Time Altitude Azimuth Time Altitude Azimuth Time Altitude Azimuth
Meteor 2-9 Rocket 4.5 18:09:51 10° SSW 18:15:42 83° W 18:21:28 10° N
Cosmos 1300 Rocket 4.0 18:15:03 10° SSE 18:19:10 41° E 18:23:21 10° NNE
Sich 1 Rocket 3.6 18:18:58 10° S 18:23:27 73° E 18:28:01 10° NNE
NOSS 2-2 (E) 4.2 18:20:44 10° WSW 18:24:09 48° NW 18:28:05 10° NNE
CENTAUR R/B 3.4 18:17:21 10° NW 18:25:09 57° NE 18:33:46 10° ESE
Cosmos 2298 Rocket 4.2 18:20:19 10° S 18:25:29 54° ESE 18:30:41 10° NNE
Cosmos 1833 Rocket 4.4 18:22:50 10° N 18:26:22 17° NE 18:29:53 10° E
Cosmos 1975 4.2 18:22:50 10° SSW 18:26:45 46° WNW 18:30:42 10° N
Iridium 4 Rocket 4.1 18:22:43 10° SSW 18:27:52 67° W 18:33:30 10° N
CSL-04 Debris 4.2 18:24:50 10° SSE 18:30:08 63° ENE 18:35:28 10° N
Helios 1A Rocket 4.0 18:27:57 10° S 18:31:57 50° W 18:36:00 10° NNW
CSL-04 Rocket 3.7 18:26:44 10° SSE 18:32:05 62° ENE 18:37:33 10° N
ATLAS 2AS CENTAUR R/B 3.7 18:26:50 10° SSE 18:33:28 31° ESE 18:40:08 10° NE
Okean 2 Rocket 3.1 18:29:16 10° S 18:33:40 59° E 18:38:05 10° NNE
NOSS 2-2 (D) 4.1 18:30:36 10° WSW 18:34:00 48° NW 18:37:53 10° NNE
YAOGAN 1 2.6 18:30:21 10° SSE 18:34:40 90° W 18:39:02 10° NNW
Cosmos 1025 Rocket 3.1 18:30:20 10° N 18:34:41 57° ENE 18:39:01 10° SSE
ATLAS 3B R/B 3.8 18:31:14 10° NNW 18:37:06 30° NNE 18:42:35 12° E
Abrixas rocket 1.8 18:37:21 10° WNW 18:40:12 71° NNE 18:42:11 18° E
Cosmos 1513 Rocket 4.4 18:35:00 10° S 18:41:12 74° E 18:47:21 10° NNE
CREW DRAGON DEMO-1 DEB 3.1 18:39:13 10° WNW 18:42:12 55° NNE 18:44:16 18° E
Cosmos 1536 Rocket 3.7 18:40:05 10° N 18:44:28 55° ENE 18:48:51 10° SSE
Cosmos 1125 Rocket 3.7 18:41:01 10° S 18:46:08 51° ESE 18:51:17 10° NNE
SJ-6B 4.0 18:48:31 17° E 18:50:06 23° ENE 18:53:06 10° NNE
CZ-4 R/B 2.6 18:48:15 10° S 18:52:19 48° W 18:56:22 10° NNW
Cosmos 2150 Rocket 4.1 18:47:38 10° SSW 18:53:02 85° ESE 18:58:31 10° NNE
SJ-11-01 4.2 18:48:37 10° SSE 18:53:19 84° ENE 18:58:03 10° NNW
CZ-2C R/B 3.3 18:49:01 10° S 18:54:22 81° WSW 19:00:04 10° NNW
Cosmos 1464 Rocket 4.0 18:48:25 10° S 18:54:33 88° E 19:00:47 10° N
USA 238 DEB 4.0 18:47:20 10° NW 18:54:36 83° SW 19:02:07 10° SSE
USA 238 4.0 18:47:27 10° NW 18:54:43 84° SW 19:02:14 10° SSE
Okean-O 4.1 18:52:01 10° SSW 18:56:12 40° W 19:00:24 10° NNW
Cosmos 2285 Rocket 4.1 18:50:46 10° S 18:56:50 53° ESE 19:02:59 10° NNE
Cosmos 1674 2.9 18:53:06 10° N 18:56:51 46° ENE 19:00:17 12° SSE
Cosmos 1092 Rocket 4.3 18:51:55 10° N 18:57:48 44° ENE 19:03:42 10° SSE
MOS 1 Rocket 3.0 18:59:12 10° NNE 19:03:35 71° ESE 19:07:50 10° S
FREGAT/IRIS 4.1 19:04:41 18° NE 19:04:41 18° NE 19:05:52 10° NNE
TSX-5 4.4 19:04:30 10° S 19:08:01 37° ESE 19:12:24 10° NE
ARGOS 3.1 19:04:36 10° SSE 19:09:58 83° ENE 19:15:23 10° NNW
Cosmos 1048 Rocket 4.4 19:06:57 10° NNW 19:12:14 65° WSW 19:17:33 10° S
CZ-2C R/B 3.0 19:08:30 10° NNE 19:13:51 45° E 19:19:12 10° S
Cosmos 1340 Rocket 4.2 19:15:11 22° ENE 19:15:11 22° ENE 19:17:16 10° NE
Cosmos 1733 3.6 19:13:47 23° SE 19:15:36 39° E 19:19:11 10° NNE
Cosmos 2151 Rocket 3.9 19:11:54 10° SSW 19:16:21 70° W 19:20:52 10° N
HJ-1C 4.4 19:13:49 10° S 19:16:59 45° W 19:20:12 10° NNW
MOS 1 4.4 19:13:05 17° SE 19:17:27 54° ENE 19:23:00 10° N
Lacrosse 5 rocket 3.4 19:14:48 10° NW 19:18:09 21° N 19:20:43 14° NE
Cosmos 2082 Rocket 3.5 19:15:23 10° N 19:19:43 22° NE 19:21:17 20° ENE
Shenzhou-11 Module 4.0 19:20:14 10° SW 19:20:33 12° SSW 19:20:33 12° SSW
BREEZE-M DEB (TANK) 3.5 19:19:07 10° WNW 19:22:18 54° SSW 19:27:36 20° SE
BREEZE-M R/B 4.0 19:11:02 10° WSW 19:22:43 89° S 19:24:25 30° ENE
DMSP B5D2-2 4.3 19:18:36 10° NNE 19:23:41 46° E 19:28:44 10° S
Cosmos 494 Rocket 4.1 19:19:46 10° NNW 19:25:03 77° WSW 19:29:53 12° SSE
Meteor 1-15 Rocket 4.2 19:21:21 10° S 19:27:00 90° W 19:32:49 10° N
Cosmos 1805 3.1 19:23:34 10° S 19:27:27 79° E 19:31:24 10° NNE
OBJECT-B 2.3 19:28:48 25° NE 19:28:48 25° NE 19:30:40 10° N
Milstar 3 Cent rocket 4.2 19:27:32 10° SW 19:30:58 14° S 19:32:39 13° SSE
Ariane Rocket 2.9 19:28:06 18° SSE 19:31:50 79° ENE 19:36:57 10° NNW
SL-08 RB Rocket 3.7 19:27:52 13° SSE 19:31:55 84° WSW 19:36:28 10° NNW
H-2A R/B 3.0 19:28:35 10° S 19:33:23 47° W 19:38:20 10° NNW
USA 234 4.4 19:38:13 22° SSE 19:38:13 22° SSE 19:41:25 10° S
Cosmos 1269 Rocket 3.9 19:31:41 10° NNW 19:37:01 78° ENE 19:39:33 32° SSE
Nadezhda 4 Rocket 4.5 19:32:17 10° NNW 19:38:17 60° W 19:44:17 10° S
KORONAS-FOTON 4.4 19:34:31 10° NNW 19:38:23 57° W 19:41:31 15° S
Cosmos 1626 2.0 19:38:28 10° N 19:42:02 66° ENE 19:42:02 66° ENE
MetOp-A 4.0 19:40:20 27° SSE 19:43:22 79° ENE 19:48:45 10° NNW
USA 186 2.4 19:42:34 39° SSW 19:43:26 55° W 19:46:42 10° NNW
Cosmos 1844 Rocket 3.8 19:40:45 10° SW 19:46:04 45° WNW 19:51:27 10° NNE
COSMOS 2406 3.2 19:40:32 10° NNW 19:46:12 65° ENE 19:47:55 44° SE
ISS -2.3 19:44:23 10° WNW 19:47:25 30° N 19:47:46 29° N
Cosmos 2278 Rocket 2.8 19:44:46 10° S 19:51:32 37° ENE 19:55:27 10° NE
Lacrosse 4 Rocket 2.7 19:49:58 10° NNW 19:52:52 27° NNE 19:52:52 27° NNE
Meteor 1-22 Rocket 4.2 19:48:59 10° S 19:54:52 79° E 20:00:59 10° NNE
Meteor 2-5 Rocket 3.9 19:50:56 10° NNW 19:56:37 72° W 20:00:46 19° S
Exosat Rocket 4.2 19:52:52 10° SW 19:58:07 55° WNW 20:03:04 10° NNE
Meteor 1-24 Rocket 3.7 19:53:21 10° NNW 19:58:58 88° W 20:01:37 34° S
Okean 1 Rocket 3.9 19:55:44 10° SSW 20:00:06 52° WNW 20:04:31 10° N
NOSS 3-4 (A) 3.4 19:55:15 10° SW 20:01:10 84° NW 20:07:32 10° NE
NOSS 3-4 (C) 3.3 19:55:22 10° SW 20:01:16 85° NW 20:07:39 10° NE
SL-14 R/B 3.3 19:58:09 10° N 20:01:55 77° NW 20:01:55 77° NW
Resurs 01 Rocket 2.2 20:03:26 44° NE 20:03:26 44° NE 20:06:55 10° N
Meteor 2-19 Rocket 4.5 19:57:07 10° N 20:03:07 55° ENE 20:03:47 52° E
Cosmos 1766 4.5 20:05:36 10° SSW 20:09:19 42° WNW 20:13:06 10° N
Cosmos 1833 Rocket 2.5 20:05:38 10° NNW 20:11:19 76° ENE 20:11:54 68° ESE
Cosmos 2251 Rocket 4.0 20:09:00 10° NNW 20:13:44 47° NE 20:13:44 47° NE
CENTAUR R/B 4.0 20:08:14 10° NW 20:16:01 48° WSW 20:22:00 20° S
ARIANE 5 R/B 4.1 20:20:05 26° NNE 20:20:05 26° NNE 20:22:15 10° N
SPOT 3 Rocket 3.4 20:20:50 76° SSW 20:21:13 83° WSW 20:26:24 10° NNW
Cosmos 1634 Rocket 4.4 20:17:17 10° SSW 20:23:23 62° WNW 20:29:33 10° N
ATLAS 2AS CENTAUR R/B 3.2 20:15:58 10° SW 20:23:56 75° NW 20:31:50 10° NE
SJ-6B 4.4 20:24:09 27° WSW 20:24:38 28° W 20:27:57 10° NW
Resurs 1-3 4.1 20:26:18 59° WNW 20:26:18 59° WNW 20:30:18 10° NNW
ATLAS 3B R/B 2.6 20:21:43 10° NW 20:28:38 89° SW 20:29:50 65° SSE
Cosmos 1892 Rocket 4.2 20:24:55 10° NNW 20:28:35 53° WNW 20:28:35 53° WNW
Cosmos 1655 Rocket 3.9 20:31:36 10° N 20:37:50 79° ENE 20:37:50 79° ENE
CZ-2C R/B 4.5 20:49:09 10° N 20:53:56 30° WNW 20:58:45 10° WSW
Lacrosse 5 rocket 3.4 20:53:59 10° NW 20:56:20 27° NNW 20:56:20 27° NNW
OBJECT-B 4.3 21:02:00 11° WNW 21:02:00 11° WNW 21:02:10 10° NW
Cosmos 2098 Rocket 4.1 20:55:42 10° NNW 21:01:45 65° WNW 21:01:45 65° WNW
Cosmos 2082 Rocket 2.8 20:58:48 10° NNW 21:03:08 53° NW 21:03:08 53° NW
Terra 4.2 21:21:45 17° N 21:21:45 17° N 21:22:55 10° N
Lacrosse 4 Rocket 4.4 21:28:36 10° NW 21:29:10 13° NW 21:29:10 13° NW
Cosmos 2278 Rocket 3.7 21:33:01 30° WNW 21:34:19 33° NW 21:39:25 10° NNE
Resurs 01 Rocket 4.4 21:41:00 15° WNW 21:41:00 15° WNW 21:42:25 10° NW
